﻿#観測日時,平均風速,平均風向,最大風速,最大風速発生風向,最大瞬間風速,最大瞬間風速発生風向
#(年月日),(m/s)   ,(16方位),(m/s)   ,(16方位)        ,(m/s)       ,(16方位)            
2020/3/10 0:01,2.1,1,2.1,16,2.4,1
2020/3/10 0:02,2.1,1,2.1,16,2.1,1
2020/3/10 0:03,2,1,2.1,16,1,1
2020/3/10 0:04,1.8,1,2,16,0.5,5
2020/3/10 0:05,1.6,16,1.7,16,2.5,9
2020/3/10 0:06,1.3,1,1.6,16,2.4,9
2020/3/10 0:07,1,16,1.3,16,0.5,14
2020/3/10 0:08,0.9,15,1,16,1.1,12
2020/3/10 0:09,0.8,13,0.9,16,0.9,12
2020/3/10 0:10,0.7,11,0.8,1,1.3,10
2020/3/10 0:11,0.6,11,0.7,1,1.1,10
2020/3/10 0:12,0.5,10,0.6,1,0.4,9
2020/3/10 0:13,0.5,10,0.5,1,1,2
2020/3/10 0:14,0.6,11,0.6,1,1.8,1
2020/3/10 0:15,0.8,11,0.8,16,3,1
2020/3/10 0:16,0.9,12,0.9,1,2.9,1
2020/3/10 0:17,1.1,13,1.1,13,2.7,15
2020/3/10 0:18,1.3,15,1.3,15,4.1,1
2020/3/10 0:19,1.3,16,1.3,15,2.9,1
2020/3/10 0:20,1.4,16,1.4,16,2.6,2
2020/3/10 0:21,1.5,1,1.5,1,2.1,16
2020/3/10 0:22,1.6,1,1.6,1,2.2,1
2020/3/10 0:23,1.7,1,1.7,1,1.9,16
2020/3/10 0:24,1.7,1,1.7,1,2.5,2
2020/3/10 0:25,1.5,1,1.7,1,1.8,1
2020/3/10 0:26,1.4,1,1.5,1,1,16
2020/3/10 0:27,1.4,1,1.4,1,2.1,2
2020/3/10 0:28,1.3,1,1.4,1,2.5,2
2020/3/10 0:29,1.3,1,1.3,1,2.4,2
2020/3/10 0:30,1.3,1,1.3,1,3.6,2
2020/3/10 0:31,1.4,1,1.4,1,3.5,2
2020/3/10 0:32,1.5,1,1.5,1,3.5,16
2020/3/10 0:33,1.7,1,1.7,1,3,1
2020/3/10 0:34,1.7,1,1.7,1,3.2,2
2020/3/10 0:35,1.9,1,1.9,1,3.6,2
2020/3/10 0:36,2,1,2,1,3.5,1
2020/3/10 0:37,2,1,2,1,3.2,3
2020/3/10 0:38,2,1,2,1,2.4,2
2020/3/10 0:39,2.1,1,2.1,1,2.7,2
2020/3/10 0:40,2,1,2,1,2.7,3
2020/3/10 0:41,1.9,2,2,1,3,3
2020/3/10 0:42,1.9,2,2,1,2.6,2
2020/3/10 0:43,1.9,2,1.9,1,4.2,2
2020/3/10 0:44,2,2,2,1,3.5,1
2020/3/10 0:45,2,2,2,1,4.3,2
2020/3/10 0:46,1.9,2,2,1,3.1,3
2020/3/10 0:47,2,2,2,1,3.7,3
2020/3/10 0:48,2,2,2,1,3.6,2
2020/3/10 0:49,2.2,2,2.2,2,4.2,3
2020/3/10 0:50,2.1,2,2.1,2,2.7,3
2020/3/10 0:51,2.2,2,2.2,2,3.1,1
2020/3/10 0:52,2.1,2,2.1,2,2.6,1
2020/3/10 0:53,2.1,2,2.2,2,3.6,2
2020/3/10 0:54,2,2,2.1,2,3,3
2020/3/10 0:55,2.1,2,2.1,2,4.8,2
2020/3/10 0:56,2.3,2,2.3,2,4.7,3
2020/3/10 0:57,2.4,2,2.4,2,4.2,3
2020/3/10 0:58,2.4,2,2.4,2,4.5,3
2020/3/10 0:59,2.5,2,2.5,2,4.9,2
2020/3/10 1:00,2.6,2,2.6,2,4.3,1
2020/3/10 1:01,2.7,2,2.7,2,4.2,3
2020/3/10 1:02,2.7,3,2.7,2,3.9,2
2020/3/10 1:03,2.8,3,2.8,3,3.3,3
2020/3/10 1:04,2.9,3,2.9,2,3.6,3
2020/3/10 1:05,2.8,3,2.9,2,3.7,3
2020/3/10 1:06,2.7,2,2.7,2,5.4,1
2020/3/10 1:07,2.8,2,2.8,2,5.6,3
2020/3/10 1:08,2.8,2,2.9,2,4.2,3
2020/3/10 1:09,2.8,2,2.8,2,5.7,3
2020/3/10 1:10,3,2,3,2,5.8,3
2020/3/10 1:11,3,2,3,2,5.8,2
2020/3/10 1:12,3.1,2,3.1,2,4.5,2
2020/3/10 1:13,3.2,2,3.2,2,4.7,2
2020/3/10 1:14,3.1,2,3.2,2,3.9,3
2020/3/10 1:15,3.2,2,3.2,2,4.1,2
2020/3/10 1:16,3.2,2,3.2,2,5.8,2
2020/3/10 1:17,3.2,2,3.2,2,7.5,2
2020/3/10 1:18,3.2,2,3.2,2,5.8,2
2020/3/10 1:19,3.2,2,3.3,2,5.7,2
2020/3/10 1:20,3.1,2,3.2,2,5.8,2
2020/3/10 1:21,3,2,3.1,2,4.4,2
2020/3/10 1:22,2.9,2,3,2,3.5,3
2020/3/10 1:23,2.8,2,2.9,2,3.2,2
2020/3/10 1:24,2.9,2,2.9,2,3.7,1
2020/3/10 1:25,3,2,3,2,5.8,2
2020/3/10 1:26,2.9,2,3,2,4.5,2
2020/3/10 1:27,2.9,2,2.9,2,6.2,16
2020/3/10 1:28,2.9,2,2.9,2,6,2
2020/3/10 1:29,3.1,2,3.1,2,6.7,1
2020/3/10 1:30,3.2,2,3.2,2,6.1,2
2020/3/10 1:31,3.3,2,3.3,2,7,2
2020/3/10 1:32,3.5,2,3.5,2,6.4,2
2020/3/10 1:33,3.6,2,3.6,2,5.5,2
2020/3/10 1:34,3.6,2,3.6,2,4.7,1
2020/3/10 1:35,3.6,2,3.6,2,5.5,2
2020/3/10 1:36,3.7,2,3.7,2,5,2
2020/3/10 1:37,3.5,2,3.7,2,4.3,2
2020/3/10 1:38,3.6,2,3.6,2,6.4,2
2020/3/10 1:39,3.5,2,3.6,2,7.4,2
2020/3/10 1:40,3.4,2,3.5,2,5.1,3
2020/3/10 1:41,3.3,2,3.4,2,4.9,3
2020/3/10 1:42,3.2,2,3.3,2,5.4,1
2020/3/10 1:43,3.1,2,3.2,2,3.7,3
2020/3/10 1:44,3.1,2,3.2,2,5,3
2020/3/10 1:45,3,2,3.1,2,4.2,3
2020/3/10 1:46,2.9,2,3,2,4.9,2
2020/3/10 1:47,2.9,2,3,2,4.9,3
2020/3/10 1:48,2.8,2,2.9,2,4.8,2
2020/3/10 1:49,2.7,2,2.8,2,5.7,2
2020/3/10 1:50,2.7,2,2.7,2,4.1,16
2020/3/10 1:51,2.7,2,2.7,2,6,3
2020/3/10 1:52,2.8,2,2.8,2,5.8,4
2020/3/10 1:53,2.8,2,2.8,2,4.9,3
2020/3/10 1:54,2.8,2,2.8,2,5.2,3
2020/3/10 1:55,2.8,2,2.8,2,4.2,2
2020/3/10 1:56,2.8,2,2.8,2,5.8,1
2020/3/10 1:57,2.8,2,2.8,2,5.5,1
2020/3/10 1:58,3,2,3,2,6.5,3
2020/3/10 1:59,3,2,3,2,4.9,1
2020/3/10 2:00,3,2,3,2,3.9,2
2020/3/10 2:01,2.9,2,3,2,5.5,3
2020/3/10 2:02,3,2,3,2,5.7,1
2020/3/10 2:03,2.9,2,3,2,4.1,3
2020/3/10 2:04,2.8,2,2.9,2,4.5,1
2020/3/10 2:05,2.9,2,2.9,2,5.6,3
2020/3/10 2:06,2.9,2,3,2,5.5,2
2020/3/10 2:07,3.1,2,3.1,2,7.5,1
2020/3/10 2:08,3.1,2,3.1,2,6.9,1
2020/3/10 2:09,3.2,2,3.2,2,7.2,2
2020/3/10 2:10,3.3,2,3.3,2,7.2,2
2020/3/10 2:11,3.4,2,3.4,2,6.3,3
2020/3/10 2:12,3.5,2,3.5,2,6.2,3
2020/3/10 2:13,3.7,2,3.7,2,6.1,2
2020/3/10 2:14,3.8,2,3.8,2,6.8,4
2020/3/10 2:15,3.6,2,3.8,2,5.7,2
2020/3/10 2:16,3.6,2,3.7,2,5.2,3
2020/3/10 2:17,3.4,2,3.6,2,5.6,3
2020/3/10 2:18,3.4,2,3.5,2,6,3
2020/3/10 2:19,3.3,2,3.4,2,4.9,3
2020/3/10 2:20,3.3,2,3.3,2,6,2
2020/3/10 2:21,3.4,2,3.4,2,6.5,3
2020/3/10 2:22,3.2,2,3.3,2,6.5,3
2020/3/10 2:23,3.3,2,3.3,2,6,3
2020/3/10 2:24,3.3,2,3.3,2,6.1,3
2020/3/10 2:25,3.5,2,3.5,2,7,2
2020/3/10 2:26,3.6,2,3.6,2,7.5,2
2020/3/10 2:27,3.8,2,3.8,2,7.2,2
2020/3/10 2:28,3.9,2,3.9,2,7.7,3
2020/3/10 2:29,3.9,2,4,2,6,2
2020/3/10 2:30,4.1,2,4.1,2,7.9,3
2020/3/10 2:31,4.2,2,4.2,2,6.9,3
2020/3/10 2:32,4.2,2,4.2,2,6.4,3
2020/3/10 2:33,4.2,2,4.3,2,6.7,3
2020/3/10 2:34,4.2,2,4.2,2,7.6,3
2020/3/10 2:35,4.2,2,4.2,2,7.7,2
2020/3/10 2:36,4.3,2,4.3,2,8.4,3
2020/3/10 2:37,4.4,2,4.4,2,8.5,1
2020/3/10 2:38,4.3,2,4.4,2,9.5,1
2020/3/10 2:39,4.5,2,4.5,2,10.5,1
2020/3/10 2:40,4.5,2,4.5,2,9,2
2020/3/10 2:41,4.4,2,4.5,2,6.5,3
2020/3/10 2:42,4.5,2,4.5,2,7.9,2
2020/3/10 2:43,4.6,2,4.6,2,8.1,3
2020/3/10 2:44,4.6,2,4.6,2,4.9,1
2020/3/10 2:45,4.5,2,4.6,2,6.8,2
2020/3/10 2:46,4.3,2,4.5,2,5.4,2
2020/3/10 2:47,4.1,2,4.3,2,5.7,2
2020/3/10 2:48,3.9,2,4.1,2,4.1,2
2020/3/10 2:49,3.8,2,3.9,2,6.2,2
2020/3/10 2:50,3.7,2,3.8,2,5.2,1
2020/3/10 2:51,3.6,2,3.7,2,5.2,3
2020/3/10 2:52,3.5,2,3.6,2,6.7,2
2020/3/10 2:53,3.3,2,3.5,2,5.6,2
2020/3/10 2:54,3.3,2,3.3,2,4.4,2
2020/3/10 2:55,3.1,2,3.2,2,4.5,1
2020/3/10 2:56,3.2,2,3.2,2,5.2,3
2020/3/10 2:57,3.1,2,3.1,2,7,3
2020/3/10 2:58,3.2,2,3.2,2,6.1,3
2020/3/10 2:59,3.2,2,3.2,2,5.2,4
2020/3/10 3:00,3.2,2,3.2,2,6,3
2020/3/10 3:01,3.2,2,3.3,2,5.1,3
2020/3/10 3:02,3.3,2,3.3,2,5.8,3
2020/3/10 3:03,3.5,3,3.5,3,7.5,3
2020/3/10 3:04,3.6,3,3.6,3,6.9,3
2020/3/10 3:05,3.7,3,3.7,3,5.4,3
2020/3/10 3:06,3.7,3,3.7,3,4.5,3
2020/3/10 3:07,3.7,3,3.8,3,3.9,3
2020/3/10 3:08,3.7,3,3.7,3,4.1,4
2020/3/10 3:09,3.6,3,3.7,3,3.7,3
2020/3/10 3:10,3.6,3,3.7,3,4.7,3
2020/3/10 3:11,3.6,3,3.7,3,5.6,2
2020/3/10 3:12,3.6,3,3.6,3,6.4,3
2020/3/10 3:13,3.4,3,3.6,3,6.3,3
2020/3/10 3:14,3.5,3,3.5,3,4.8,3
2020/3/10 3:15,3.5,3,3.5,3,5.5,3
2020/3/10 3:16,3.6,3,3.6,3,6.1,3
2020/3/10 3:17,3.7,3,3.7,3,5.1,3
2020/3/10 3:18,3.6,3,3.7,3,4.1,3
2020/3/10 3:19,3.7,3,3.7,3,4.4,3
2020/3/10 3:20,3.7,3,3.7,3,5.4,3
2020/3/10 3:21,3.7,3,3.8,3,5.1,3
2020/3/10 3:22,3.7,3,3.7,3,5.4,3
2020/3/10 3:23,3.6,3,3.7,3,4.8,3
2020/3/10 3:24,3.4,3,3.6,3,3.3,2
2020/3/10 3:25,3.3,3,3.4,3,5.1,2
2020/3/10 3:26,3.2,3,3.3,3,5.6,3
2020/3/10 3:27,3.2,3,3.2,3,5.2,3
2020/3/10 3:28,3.3,3,3.3,3,4.7,3
2020/3/10 3:29,3.1,2,3.2,3,3.6,2
2020/3/10 3:30,3,2,3.1,3,4.9,2
2020/3/10 3:31,3,2,3,3,5.4,1
2020/3/10 3:32,2.9,2,3,3,5.2,2
2020/3/10 3:33,2.8,2,2.8,3,2.7,1
2020/3/10 3:34,2.9,2,2.9,3,5.5,3
2020/3/10 3:35,2.8,2,2.9,3,3.3,2
2020/3/10 3:36,2.8,2,2.9,3,4.5,2
2020/3/10 3:37,2.8,2,2.8,3,5.6,4
2020/3/10 3:38,2.8,2,2.9,3,4.9,3
2020/3/10 3:39,2.9,2,2.9,2,4.8,2
2020/3/10 3:40,2.9,2,2.9,2,4.9,3
2020/3/10 3:41,3,3,3,2,7.4,3
2020/3/10 3:42,3.1,3,3.1,3,6.2,4
2020/3/10 3:43,3.2,3,3.2,3,6.2,3
2020/3/10 3:44,3.4,3,3.4,3,6.5,2
2020/3/10 3:45,3.5,3,3.5,3,7.1,3
2020/3/10 3:46,3.8,3,3.8,3,6.9,2
2020/3/10 3:47,3.8,3,3.9,3,6.8,3
2020/3/10 3:48,3.8,2,3.8,3,5.4,2
2020/3/10 3:49,3.9,2,3.9,3,5.1,1
2020/3/10 3:50,4,2,4,2,6,1
2020/3/10 3:51,4.1,2,4.1,2,7.4,2
2020/3/10 3:52,4.1,2,4.1,2,6.2,3
2020/3/10 3:53,4.1,2,4.1,2,5.5,2
2020/3/10 3:54,4,2,4.1,2,6,3
2020/3/10 3:55,4,2,4,2,7,2
2020/3/10 3:56,4,2,4,2,6.9,3
2020/3/10 3:57,3.8,2,3.9,2,5.7,3
2020/3/10 3:58,3.8,2,3.8,2,6,2
2020/3/10 3:59,3.8,2,3.8,2,6.3,3
2020/3/10 4:00,3.7,2,3.8,2,4.8,1
2020/3/10 4:01,3.6,2,3.8,2,5.4,3
2020/3/10 4:02,3.5,2,3.6,2,4.7,16
2020/3/10 4:03,3.5,2,3.5,2,5.8,3
2020/3/10 4:04,3.5,2,3.5,2,5.2,2
2020/3/10 4:05,3.5,2,3.6,2,6,3
2020/3/10 4:06,3.4,2,3.5,2,4.9,4
2020/3/10 4:07,3.5,2,3.5,2,5.1,2
2020/3/10 4:08,3.4,2,3.5,2,4.9,3
2020/3/10 4:09,3.5,2,3.5,2,6.4,2
2020/3/10 4:10,3.6,3,3.6,2,4.8,3
2020/3/10 4:11,3.6,3,3.6,2,4.7,3
2020/3/10 4:12,3.9,3,3.9,3,8.4,4
2020/3/10 4:13,3.8,3,3.9,3,4.9,3
2020/3/10 4:14,3.8,3,3.9,3,6,3
2020/3/10 4:15,3.8,3,3.9,3,5,3
2020/3/10 4:16,3.9,3,3.9,3,4.8,3
2020/3/10 4:17,3.7,3,3.9,3,3.3,3
2020/3/10 4:18,3.6,3,3.6,3,5.7,2
2020/3/10 4:19,3.5,3,3.5,3,5.2,3
2020/3/10 4:20,3.4,3,3.5,3,4.2,3
2020/3/10 4:21,3.4,3,3.4,3,6.1,5
2020/3/10 4:22,3.2,3,3.4,3,5.6,3
2020/3/10 4:23,3.2,3,3.2,3,4.4,1
2020/3/10 4:24,3.1,3,3.2,3,4.4,1
2020/3/10 4:25,2.9,3,3.1,3,4.4,3
2020/3/10 4:26,2.9,3,2.9,3,5.1,3
2020/3/10 4:27,2.9,3,2.9,3,4.9,1
2020/3/10 4:28,3,3,3,3,5.4,1
2020/3/10 4:29,2.9,3,3,3,5.1,3
2020/3/10 4:30,2.9,2,2.9,3,5.2,3
2020/3/10 4:31,2.9,2,2.9,3,5.1,4
2020/3/10 4:32,2.8,2,2.8,3,4.5,3
2020/3/10 4:33,2.8,2,2.8,3,2.9,2
2020/3/10 4:34,2.7,3,2.8,3,3.7,4
2020/3/10 4:35,2.7,3,2.7,3,3.5,3
2020/3/10 4:36,2.7,3,2.7,3,3.8,3
2020/3/10 4:37,2.7,3,2.7,3,3.7,2
2020/3/10 4:38,2.6,3,2.7,3,4.4,3
2020/3/10 4:39,2.6,3,2.6,3,4.3,3
2020/3/10 4:40,2.6,3,2.6,2,4.7,3
2020/3/10 4:41,2.7,3,2.7,2,4.7,3
2020/3/10 4:42,2.7,3,2.7,2,5.6,4
2020/3/10 4:43,2.9,3,2.9,3,5,4
2020/3/10 4:44,3.1,3,3.1,3,6,4
2020/3/10 4:45,3.1,3,3.1,3,4.2,4
2020/3/10 4:46,3.1,3,3.1,3,3.8,3
2020/3/10 4:47,3.2,3,3.2,3,4.7,3
2020/3/10 4:48,3.3,3,3.3,3,5.4,4
2020/3/10 4:49,3.5,4,3.5,4,5.8,3
2020/3/10 4:50,3.7,4,3.7,4,6.9,3
2020/3/10 4:51,3.7,3,3.7,4,5.8,3
2020/3/10 4:52,3.5,3,3.6,4,4.5,5
2020/3/10 4:53,3.6,3,3.6,4,5.5,4
2020/3/10 4:54,3.6,3,3.7,4,6,4
2020/3/10 4:55,3.8,3,3.8,3,6.3,4
2020/3/10 4:56,4,3,4,3,6.7,4
2020/3/10 4:57,4.1,3,4.1,3,6.9,3
2020/3/10 4:58,4.1,3,4.1,3,6.5,3
2020/3/10 4:59,4,3,4.1,3,6.1,3
2020/3/10 5:00,3.8,3,4,3,5.4,3
2020/3/10 5:01,3.7,3,3.8,3,4.2,4
2020/3/10 5:02,3.8,3,3.8,3,5,6
2020/3/10 5:03,3.7,3,3.7,3,5,4
2020/3/10 5:04,3.7,3,3.8,3,5.8,3
2020/3/10 5:05,3.6,3,3.7,3,5.2,5
2020/3/10 5:06,3.3,3,3.6,3,3.1,2
2020/3/10 5:07,3.1,3,3.2,3,3.5,5
2020/3/10 5:08,3,3,3.1,3,3.6,3
2020/3/10 5:09,2.9,3,3,3,3.7,3
2020/3/10 5:10,2.9,3,2.9,3,4.4,3
2020/3/10 5:11,3,3,3,3,5.2,3
2020/3/10 5:12,2.9,3,3,3,4.7,3
2020/3/10 5:13,2.9,3,3,3,4.5,4
2020/3/10 5:14,2.7,3,2.9,3,4.8,3
2020/3/10 5:15,2.7,3,2.8,3,5.1,4
2020/3/10 5:16,2.9,3,2.9,3,5.1,3
2020/3/10 5:17,3.1,3,3.1,3,5.6,4
2020/3/10 5:18,3.4,3,3.4,3,6.7,3
2020/3/10 5:19,3.6,3,3.6,3,6.7,4
2020/3/10 5:20,3.7,3,3.7,3,5.5,3
2020/3/10 5:21,3.6,3,3.7,3,5.4,3
2020/3/10 5:22,3.7,3,3.7,3,5,5
2020/3/10 5:23,3.8,3,3.8,3,5.4,4
2020/3/10 5:24,3.9,4,3.9,3,6.2,3
2020/3/10 5:25,4.1,4,4.1,4,7.4,5
2020/3/10 5:26,4.2,4,4.2,4,6,5
2020/3/10 5:27,4,4,4.2,4,3.6,4
2020/3/10 5:28,3.8,4,4,4,4.9,3
2020/3/10 5:29,3.6,4,3.8,4,3.9,3
2020/3/10 5:30,3.5,4,3.6,4,4.2,5
2020/3/10 5:31,3.4,4,3.5,4,3.5,2
2020/3/10 5:32,3.3,4,3.4,4,4.7,4
2020/3/10 5:33,3.3,4,3.4,4,4.7,5
2020/3/10 5:34,3.2,4,3.3,4,3.2,3
2020/3/10 5:35,2.9,4,3.1,4,5.2,4
2020/3/10 5:36,2.9,4,2.9,4,6.7,5
2020/3/10 5:37,3,4,3,4,5.6,4
2020/3/10 5:38,3.1,4,3.1,4,5.5,5
2020/3/10 5:39,3.2,4,3.2,4,5.4,4
2020/3/10 5:40,3.4,4,3.4,4,6.7,5
2020/3/10 5:41,3.4,4,3.4,4,5.2,4
2020/3/10 5:42,3.6,4,3.6,4,6.7,4
2020/3/10 5:43,3.6,4,3.6,4,7,3
2020/3/10 5:44,3.7,4,3.7,4,5.2,4
2020/3/10 5:45,3.7,4,3.8,4,4.8,5
2020/3/10 5:46,3.8,4,3.8,4,6.3,3
2020/3/10 5:47,3.8,4,3.8,4,5.8,3
2020/3/10 5:48,3.8,3,3.8,4,5.7,3
2020/3/10 5:49,3.9,3,3.9,3,6.5,3
2020/3/10 5:50,3.8,3,3.9,3,5.6,4
2020/3/10 5:51,3.8,3,3.8,3,5.5,4
2020/3/10 5:52,3.8,3,3.9,3,5.5,4
2020/3/10 5:53,3.7,3,3.7,3,4.4,3
2020/3/10 5:54,3.7,3,3.7,3,4.5,4
2020/3/10 5:55,3.6,3,3.6,3,4.7,2
2020/3/10 5:56,3.4,3,3.6,3,4.7,2
2020/3/10 5:57,3.3,3,3.4,3,5.1,3
2020/3/10 5:58,3.2,3,3.3,3,5.5,3
2020/3/10 5:59,3.2,3,3.3,3,5.1,3
2020/3/10 6:00,3.1,3,3.2,3,6,3
2020/3/10 6:01,3,2,3.1,3,4.7,4
2020/3/10 6:02,3,2,3,3,7.1,2
2020/3/10 6:03,3.2,2,3.2,3,6.2,3
2020/3/10 6:04,3.1,2,3.2,3,5.5,3
2020/3/10 6:05,3.1,2,3.2,3,3.7,2
2020/3/10 6:06,3.1,2,3.1,3,5,3
2020/3/10 6:07,3,2,3.1,3,3.6,2
2020/3/10 6:08,2.8,2,3,3,2.6,4
2020/3/10 6:09,2.7,2,2.8,3,3.8,4
2020/3/10 6:10,2.6,3,2.7,2,4.4,4
2020/3/10 6:11,2.7,3,2.7,2,4.4,4
2020/3/10 6:12,2.7,3,2.8,2,5.4,3
2020/3/10 6:13,2.6,3,2.7,2,4.1,3
2020/3/10 6:14,2.6,3,2.6,2,6.8,3
2020/3/10 6:15,2.7,3,2.7,2,4.7,2
2020/3/10 6:16,2.7,3,2.7,2,5.2,3
2020/3/10 6:17,3,3,3,2,5.6,3
2020/3/10 6:18,3.1,3,3.1,3,5.1,3
2020/3/10 6:19,3.3,3,3.3,3,6.2,3
2020/3/10 6:20,3.2,3,3.3,3,4.3,3
2020/3/10 6:21,3.2,3,3.2,3,6,3
2020/3/10 6:22,3.2,3,3.2,3,4.4,3
2020/3/10 6:23,3.2,3,3.2,3,4.3,3
2020/3/10 6:24,3.3,3,3.3,3,5,4
2020/3/10 6:25,3.3,3,3.3,3,5.4,3
2020/3/10 6:26,3.4,3,3.4,3,6.2,3
2020/3/10 6:27,3.4,3,3.4,3,6,2
2020/3/10 6:28,3.4,3,3.4,3,5,2
2020/3/10 6:29,3.4,3,3.4,3,6.2,2
2020/3/10 6:30,3.5,3,3.5,3,6.2,3
2020/3/10 6:31,3.6,3,3.7,3,6.2,3
2020/3/10 6:32,3.5,3,3.6,3,4.7,2
2020/3/10 6:33,3.4,3,3.5,3,6,3
2020/3/10 6:34,3.5,3,3.5,3,6.3,2
2020/3/10 6:35,3.6,3,3.6,3,6.2,3
2020/3/10 6:36,3.5,2,3.5,3,6.7,2
2020/3/10 6:37,3.4,2,3.5,3,6.1,3
2020/3/10 6:38,3.5,2,3.5,3,5.4,4
2020/3/10 6:39,3.4,3,3.5,3,6.4,2
2020/3/10 6:40,3.5,3,3.6,3,6.8,4
2020/3/10 6:41,3.6,3,3.6,3,6.8,3
2020/3/10 6:42,3.9,3,3.9,3,7.4,3
2020/3/10 6:43,4.1,3,4.2,3,6.7,3
2020/3/10 6:44,4.1,3,4.2,3,6.2,3
2020/3/10 6:45,4.1,3,4.1,3,5,4
2020/3/10 6:46,4.1,3,4.1,3,4.3,2
2020/3/10 6:47,4.1,3,4.1,3,6.2,3
2020/3/10 6:48,4.1,3,4.2,3,5,2
2020/3/10 6:49,4,3,4.1,3,4.1,2
2020/3/10 6:50,3.8,3,4,3,5.6,3
2020/3/10 6:51,3.9,3,3.9,3,7.7,2
2020/3/10 6:52,3.7,3,3.9,3,4.9,3
2020/3/10 6:53,3.6,3,3.7,3,5.4,3
2020/3/10 6:54,3.5,3,3.6,3,5.1,3
2020/3/10 6:55,3.6,3,3.6,3,7,4
2020/3/10 6:56,3.7,3,3.7,3,5.8,3
2020/3/10 6:57,3.6,3,3.7,3,5.1,2
2020/3/10 6:58,3.6,3,3.6,3,5.4,3
2020/3/10 6:59,3.8,3,3.8,3,7.8,3
2020/3/10 7:00,3.9,3,3.9,3,7,3
2020/3/10 7:01,3.9,3,4,3,6.1,3
2020/3/10 7:02,3.9,3,4,3,6.5,3
2020/3/10 7:03,3.9,3,3.9,3,6.4,2
2020/3/10 7:04,4.1,3,4.1,3,7.9,3
2020/3/10 7:05,4.1,3,4.1,3,6.3,3
2020/3/10 7:06,4.1,3,4.1,3,6.9,3
2020/3/10 7:07,4.1,3,4.2,3,6,3
2020/3/10 7:08,4.2,2,4.2,3,6,3
2020/3/10 7:09,4.1,3,4.2,3,6.7,3
2020/3/10 7:10,4,2,4.1,3,6.7,3
2020/3/10 7:11,4,2,4,3,6.5,3
2020/3/10 7:12,4.1,2,4.1,3,6,3
2020/3/10 7:13,4,3,4.1,3,4.8,3
2020/3/10 7:14,3.8,2,3.9,3,6.5,1
2020/3/10 7:15,3.8,3,3.9,3,6.5,3
2020/3/10 7:16,3.6,2,3.7,3,4.2,1
2020/3/10 7:17,3.6,2,3.6,3,6.4,2
2020/3/10 7:18,3.5,2,3.7,3,5,3
2020/3/10 7:19,3.5,2,3.5,3,3.8,3
2020/3/10 7:20,3.4,2,3.4,2,5.2,4
2020/3/10 7:21,3.3,2,3.5,2,4.8,3
2020/3/10 7:22,3.3,2,3.3,3,5.6,3
2020/3/10 7:23,3.4,2,3.4,3,5.7,2
2020/3/10 7:24,3.4,2,3.4,3,6.3,3
2020/3/10 7:25,3.4,2,3.4,3,6.7,1
2020/3/10 7:26,3.5,2,3.5,2,5,1
2020/3/10 7:27,3.4,2,3.5,2,5.6,2
2020/3/10 7:28,3.4,2,3.4,2,3.7,2
2020/3/10 7:29,3.4,2,3.4,2,5.1,1
2020/3/10 7:30,3.4,2,3.4,2,5.8,3
2020/3/10 7:31,3.4,2,3.4,2,6.4,3
2020/3/10 7:32,3.4,2,3.5,2,5.1,1
2020/3/10 7:33,3.3,2,3.4,2,4.9,3
2020/3/10 7:34,3.3,2,3.3,2,5.1,2
2020/3/10 7:35,3.1,2,3.3,2,4.9,2
2020/3/10 7:36,3,2,3.1,2,3.1,1
2020/3/10 7:37,2.9,2,3,2,5.7,3
2020/3/10 7:38,3,2,3,2,4.3,2
2020/3/10 7:39,3,2,3,2,3.8,3
2020/3/10 7:40,2.8,2,3,2,4.7,2
2020/3/10 7:41,2.6,2,2.8,2,4.1,3
2020/3/10 7:42,2.5,2,2.6,2,4.4,3
2020/3/10 7:43,2.6,2,2.6,2,5.8,2
2020/3/10 7:44,2.6,2,2.6,2,5.6,2
2020/3/10 7:45,2.6,2,2.6,2,4.5,1
2020/3/10 7:46,2.6,2,2.7,2,4.1,3
2020/3/10 7:47,2.6,2,2.6,2,3.6,2
2020/3/10 7:48,2.6,2,2.6,2,4.8,1
2020/3/10 7:49,2.7,2,2.7,2,4.9,3
2020/3/10 7:50,2.8,2,2.8,2,4.7,3
2020/3/10 7:51,2.7,2,2.8,2,4.2,2
2020/3/10 7:52,2.6,2,2.7,2,2.9,2
2020/3/10 7:53,2.6,2,2.6,2,4.5,3
2020/3/10 7:54,2.6,2,2.6,2,4.7,3
2020/3/10 7:55,2.5,3,2.6,2,3.9,3
2020/3/10 7:56,2.7,3,2.7,2,5.7,3
2020/3/10 7:57,3,3,3,3,4.7,4
2020/3/10 7:58,2.9,3,3,3,4.3,4
2020/3/10 7:59,2.8,3,2.9,3,3.9,3
2020/3/10 8:00,2.9,3,2.9,3,5.2,3
2020/3/10 8:01,3,3,3.1,3,5.1,3
2020/3/10 8:02,3.2,3,3.2,3,3.8,1
2020/3/10 8:03,3.2,3,3.2,3,3.9,3
2020/3/10 8:04,3.2,3,3.2,3,5.4,3
2020/3/10 8:05,3.2,3,3.2,3,4.8,3
2020/3/10 8:06,3.1,3,3.2,3,4.4,2
2020/3/10 8:07,3.1,3,3.1,3,6.2,3
2020/3/10 8:08,3.2,3,3.2,3,6,3
2020/3/10 8:09,3.4,3,3.4,3,5.5,3
2020/3/10 8:10,3.4,3,3.5,3,5.2,2
2020/3/10 8:11,3.4,3,3.4,3,4.2,4
2020/3/10 8:12,3.3,3,3.4,3,4.2,2
2020/3/10 8:13,3.3,3,3.3,3,4.8,2
2020/3/10 8:14,3.3,3,3.3,3,5.6,2
2020/3/10 8:15,3.5,3,3.5,3,5.6,3
2020/3/10 8:16,3.5,3,3.5,3,5,3
2020/3/10 8:17,3.4,3,3.5,3,7.6,4
2020/3/10 8:18,3.5,3,3.5,3,6.9,5
2020/3/10 8:19,3.5,3,3.6,3,6.4,3
2020/3/10 8:20,3.4,3,3.5,3,4.2,4
2020/3/10 8:21,3.5,3,3.5,3,5.7,3
2020/3/10 8:22,3.5,3,3.5,3,6.4,3
2020/3/10 8:23,3.7,3,3.7,3,7.6,1
2020/3/10 8:24,3.6,3,3.7,3,5.6,3
2020/3/10 8:25,3.6,3,3.6,3,7.6,3
2020/3/10 8:26,3.7,3,3.7,3,6.1,3
2020/3/10 8:27,3.7,3,3.8,3,5.6,3
2020/3/10 8:28,3.5,3,3.7,3,6.2,3
2020/3/10 8:29,3.5,3,3.5,3,5.8,4
2020/3/10 8:30,3.6,3,3.6,3,5.7,3
2020/3/10 8:31,3.7,3,3.8,3,6.8,2
2020/3/10 8:32,3.9,3,3.9,3,7.1,3
2020/3/10 8:33,3.9,3,4,3,5.8,3
2020/3/10 8:34,3.9,3,3.9,3,5.1,3
2020/3/10 8:35,3.8,3,3.9,3,5.1,4
2020/3/10 8:36,3.7,3,3.8,3,6.7,3
2020/3/10 8:37,3.7,3,3.7,3,5,3
2020/3/10 8:38,3.8,3,3.9,3,4.9,4
2020/3/10 8:39,3.7,3,3.8,3,5.6,3
2020/3/10 8:40,3.8,3,3.8,3,5.2,3
2020/3/10 8:41,3.4,3,3.7,3,4.8,4
2020/3/10 8:42,3.3,3,3.4,3,4.7,3
2020/3/10 8:43,3.4,3,3.4,3,5.6,3
2020/3/10 8:44,3.4,3,3.4,3,5.2,3
2020/3/10 8:45,3.4,3,3.4,3,5.1,2
2020/3/10 8:46,3.4,3,3.4,3,6.7,4
2020/3/10 8:47,3.5,3,3.5,3,7.4,3
2020/3/10 8:48,3.5,3,3.5,3,6.2,4
2020/3/10 8:49,3.6,3,3.6,3,6.1,3
2020/3/10 8:50,3.5,3,3.6,3,4.7,3
2020/3/10 8:51,3.7,3,3.7,3,6.1,3
2020/3/10 8:52,3.7,3,3.8,3,4.9,3
2020/3/10 8:53,3.6,3,3.7,3,4.4,5
2020/3/10 8:54,3.6,3,3.6,3,4.3,3
2020/3/10 8:55,3.7,3,3.7,3,7.2,4
2020/3/10 8:56,3.7,3,3.8,3,6,3
2020/3/10 8:57,3.5,3,3.7,3,4.2,3
2020/3/10 8:58,3.4,3,3.5,3,4.8,4
2020/3/10 8:59,3.3,3,3.4,3,4.2,2
2020/3/10 9:00,3.2,3,3.3,3,5.4,3
2020/3/10 9:01,3.2,3,3.2,3,5.7,4
2020/3/10 9:02,3.1,3,3.1,3,6.2,3
2020/3/10 9:03,3.1,3,3.1,3,4.9,2
2020/3/10 9:04,3,3,3.1,3,3.7,4
2020/3/10 9:05,2.8,3,3,3,4.2,2
2020/3/10 9:06,2.8,3,2.8,3,7.5,4
2020/3/10 9:07,2.9,3,2.9,3,5.2,5
2020/3/10 9:08,3,3,3,3,6.3,4
2020/3/10 9:09,3.1,4,3.1,3,6.5,5
2020/3/10 9:10,3.2,4,3.2,3,4.5,5
2020/3/10 9:11,3.1,4,3.2,4,4.1,3
2020/3/10 9:12,3.1,4,3.2,4,4.4,3
2020/3/10 9:13,3.1,4,3.1,4,5.4,4
2020/3/10 9:14,3.1,4,3.1,4,3.2,4
2020/3/10 9:15,3,4,3,4,3.1,2
2020/3/10 9:16,2.9,4,3,4,5,3
2020/3/10 9:17,3,4,3,4,4.8,3
2020/3/10 9:18,2.9,3,3,4,4.7,3
2020/3/10 9:19,2.9,3,2.9,4,5,3
2020/3/10 9:20,2.7,3,2.8,4,3.5,5
2020/3/10 9:21,2.7,3,2.7,4,4.2,3
2020/3/10 9:22,2.7,3,2.7,4,2.9,4
2020/3/10 9:23,2.5,3,2.7,4,2.5,3
2020/3/10 9:24,2.5,3,2.5,4,2.5,4
2020/3/10 9:25,2.5,3,2.5,4,2.6,5
2020/3/10 9:26,2.4,3,2.5,4,3.8,3
2020/3/10 9:27,2.3,4,2.4,4,4.5,5
2020/3/10 9:28,2.2,4,2.3,3,3.5,4
2020/3/10 9:29,2.1,3,2.2,3,6.2,3
2020/3/10 9:30,2.2,3,2.2,3,5.6,4
2020/3/10 9:31,2.3,3,2.3,3,5.6,4
2020/3/10 9:32,2.5,4,2.5,3,5,4
2020/3/10 9:33,2.6,4,2.6,4,3.7,4
2020/3/10 9:34,2.7,4,2.7,4,5.1,4
2020/3/10 9:35,2.8,4,2.8,4,5,6
2020/3/10 9:36,3,4,3,4,5.1,5
2020/3/10 9:37,3,4,3,4,5.1,5
2020/3/10 9:38,3.1,4,3.1,4,3.5,3
2020/3/10 9:39,3.1,4,3.2,4,5.1,3
2020/3/10 9:40,3.2,4,3.2,4,6,4
2020/3/10 9:41,3.1,4,3.2,4,4.9,4
2020/3/10 9:42,3.1,4,3.1,4,5,3
2020/3/10 9:43,3.1,4,3.1,4,4.1,3
2020/3/10 9:44,3.1,4,3.1,4,4.5,3
2020/3/10 9:45,3.3,4,3.3,4,7.5,5
2020/3/10 9:46,3.2,4,3.3,4,4.4,4
2020/3/10 9:47,3.3,4,3.3,4,8.6,4
2020/3/10 9:48,3.7,4,3.7,4,8.7,5
2020/3/10 9:49,3.7,4,3.8,4,7.6,6
2020/3/10 9:50,3.5,4,3.7,4,2.7,4
2020/3/10 9:51,3.4,4,3.4,4,3.3,2
2020/3/10 9:52,3.3,4,3.4,4,4.3,3
2020/3/10 9:53,3.5,4,3.5,4,7.1,5
2020/3/10 9:54,3.6,4,3.6,4,6.1,6
2020/3/10 9:55,3.5,5,3.6,4,6.7,7
2020/3/10 9:56,3.7,5,3.7,4,5.7,4
2020/3/10 9:57,3.7,5,3.8,4,5.4,4
2020/3/10 9:58,3.4,5,3.7,4,7.1,6
2020/3/10 9:59,3.3,5,3.4,4,4.2,6
2020/3/10 10:00,3.4,5,3.4,4,4.7,5
2020/3/10 10:01,3.4,5,3.4,4,3.6,5
2020/3/10 10:02,3.4,5,3.4,4,4.2,4
2020/3/10 10:03,3.3,5,3.4,4,7.8,3
2020/3/10 10:04,3.4,5,3.4,4,7.9,5
2020/3/10 10:05,3.3,5,3.4,4,5.2,6
2020/3/10 10:06,3.2,5,3.4,4,4.9,5
2020/3/10 10:07,3,5,3.1,5,3.2,7
2020/3/10 10:08,2.9,5,3,5,4.1,5
2020/3/10 10:09,3,5,3,5,6,6
2020/3/10 10:10,2.9,6,3,5,4.2,6
2020/3/10 10:11,3.1,6,3.1,5,8.5,6
2020/3/10 10:12,3.1,6,3.1,5,4.3,3
2020/3/10 10:13,3.1,6,3.1,5,6.5,5
2020/3/10 10:14,3,6,3.1,5,9.3,6
2020/3/10 10:15,3,6,3,5,6.2,5
2020/3/10 10:16,3.1,6,3.1,5,6.1,5
2020/3/10 10:17,3.4,6,3.4,6,7.5,6
2020/3/10 10:18,3.6,6,3.6,6,8.9,5
2020/3/10 10:19,3.6,6,3.6,6,5.4,7
2020/3/10 10:20,3.9,6,3.9,6,7.7,6
2020/3/10 10:21,3.9,5,4,6,4.8,5
2020/3/10 10:22,3.9,5,3.9,6,3.6,4
2020/3/10 10:23,3.6,5,3.9,6,2.1,3
2020/3/10 10:24,3.4,5,3.6,6,3.9,4
2020/3/10 10:25,3.5,5,3.5,6,6.3,7
2020/3/10 10:26,3.7,5,3.7,6,9.2,7
2020/3/10 10:27,3.7,5,3.7,6,7.7,6
2020/3/10 10:28,3.6,5,3.7,6,6.1,4
2020/3/10 10:29,3.5,5,3.6,6,4.7,6
2020/3/10 10:30,3.3,5,3.5,6,6.2,5
2020/3/10 10:31,3.4,5,3.4,5,8.1,5
2020/3/10 10:32,3.7,5,3.7,5,8.4,5
2020/3/10 10:33,4,5,4,5,8.1,5
2020/3/10 10:34,4.3,6,4.3,6,6.8,8
2020/3/10 10:35,4.1,6,4.3,6,5.2,8
2020/3/10 10:36,3.8,6,4,6,4.1,6
2020/3/10 10:37,3.5,6,3.8,6,3.5,6
2020/3/10 10:38,3.3,6,3.5,6,2.9,4
2020/3/10 10:39,3.3,5,3.4,6,4.3,5
2020/3/10 10:40,3.2,6,3.3,6,4.2,8
2020/3/10 10:41,3.1,6,3.2,6,5.5,4
2020/3/10 10:42,3,6,3.1,6,6.7,5
2020/3/10 10:43,3.1,6,3.1,6,6.7,5
2020/3/10 10:44,3.1,6,3.1,6,6.4,5
2020/3/10 10:45,3.4,5,3.4,6,7.6,6
2020/3/10 10:46,3.4,5,3.4,6,6.8,8
2020/3/10 10:47,3.6,5,3.6,5,6.2,6
2020/3/10 10:48,3.7,5,3.7,5,7.7,4
2020/3/10 10:49,4,5,4,5,8.9,4
2020/3/10 10:50,4.2,5,4.2,5,8.4,5
2020/3/10 10:51,4.4,5,4.4,5,6.8,5
2020/3/10 10:52,4.3,5,4.4,5,7.6,5
2020/3/10 10:53,4,5,4.2,5,4.8,7
2020/3/10 10:54,3.9,6,4,5,4.7,6
2020/3/10 10:55,3.7,5,3.9,5,5.1,6
2020/3/10 10:56,3.6,5,3.7,5,5.1,4
2020/3/10 10:57,3.5,5,3.6,5,3.5,7
2020/3/10 10:58,3.3,5,3.5,5,3.2,6
2020/3/10 10:59,2.9,5,3.3,5,3,8
2020/3/10 11:00,2.8,5,2.9,5,6.2,5
2020/3/10 11:01,2.7,5,2.8,5,5.8,4
2020/3/10 11:02,2.6,5,2.6,5,4.7,4
2020/3/10 11:03,2.6,5,2.6,5,5.2,5
2020/3/10 11:04,2.8,5,2.8,5,6.9,4
2020/3/10 11:05,2.9,5,2.9,5,6.7,4
2020/3/10 11:06,3.3,5,3.3,5,8.5,5
2020/3/10 11:07,3.6,5,3.6,5,7.4,6
2020/3/10 11:08,3.6,5,3.6,5,5.7,6
2020/3/10 11:09,3.8,5,3.8,5,6.2,7
2020/3/10 11:10,3.6,5,3.8,5,4.4,8
2020/3/10 11:11,3.5,5,3.6,5,3.6,4
2020/3/10 11:12,3.5,5,3.6,5,5,5
2020/3/10 11:13,3.5,5,3.6,5,4.3,4
2020/3/10 11:14,3.4,5,3.6,5,4.4,6
2020/3/10 11:15,3.3,5,3.4,5,4.7,4
2020/3/10 11:16,3.1,5,3.3,5,6.7,6
2020/3/10 11:17,2.9,5,3,5,3.9,3
2020/3/10 11:18,2.9,5,2.9,5,3.8,3
2020/3/10 11:19,2.8,4,2.9,5,3.7,7
2020/3/10 11:20,2.8,4,2.8,5,3.6,5
2020/3/10 11:21,2.9,4,2.9,5,5,4
2020/3/10 11:22,2.8,4,2.9,5,3.5,6
2020/3/10 11:23,2.7,4,2.8,5,2.7,4
2020/3/10 11:24,2.7,4,2.7,5,4.3,6
2020/3/10 11:25,2.7,4,2.7,5,3.9,5
2020/3/10 11:26,2.5,4,2.7,5,4.3,5
2020/3/10 11:27,2.5,4,2.5,5,3,3
2020/3/10 11:28,2.4,4,2.5,5,2.9,4
2020/3/10 11:29,2.3,4,2.4,4,3.1,4
2020/3/10 11:30,2.5,4,2.5,4,6.5,3
2020/3/10 11:31,2.6,4,2.6,4,6.9,4
2020/3/10 11:32,2.7,4,2.7,4,4.2,4
2020/3/10 11:33,2.8,5,2.8,5,4.4,5
2020/3/10 11:34,2.7,5,2.8,5,4.3,4
2020/3/10 11:35,2.6,5,2.7,5,2.5,1
2020/3/10 11:36,2.6,4,2.6,5,4.4,3
2020/3/10 11:37,2.7,4,2.7,5,4.8,4
2020/3/10 11:38,2.9,4,2.9,4,3.9,5
2020/3/10 11:39,3,5,3,4,6,5
2020/3/10 11:40,2.8,5,3,4,3.6,5
2020/3/10 11:41,2.7,5,2.8,4,4.2,5
2020/3/10 11:42,2.6,5,2.7,4,3.5,6
2020/3/10 11:43,2.4,5,2.5,4,3,7
2020/3/10 11:44,2.3,5,2.4,4,3,6
2020/3/10 11:45,2.4,5,2.4,4,3.6,4
2020/3/10 11:46,2.3,5,2.4,4,3.7,5
2020/3/10 11:47,2.3,5,2.4,4,5,4
2020/3/10 11:48,2.4,5,2.4,4,5.4,5
2020/3/10 11:49,2.4,5,2.4,5,5.1,6